Regional Weather Roundup
Issued by NWS Spokane, WA

Home | Current Version | Previous Version | Text Only | Print | Product List | Glossary On
Versions: 1 2 3 4 5 6 7 8 9 10 11 12 13 14 15 16 17 18 19 20 21 22 23 24 25 26 27 28 29 30 31 32 33 34 35 36 37 38 39 40 41 42 43 44 45 46 47 48 49 50
000
NZUS01 KOTX 162025
RWROTX

Eastern Washington/Northern Idaho Roundup
National Weather Service, Spokane WA
100 PM PDT WED AUG 16 2017

Note: "fair" indicated few or no clouds below 12,000 feet with no
significant weather and/or obstructions to visibility.

...Northeast Washington and Northern Idaho Panhandle...

CITY           SKY/WX    TMP DP  RH WIND       PRES   REMARKS
Spokane Intl   MOSUNNY   78  40  25 SW12      30.01F
Spokane Downto SUNNY     82  41  23 SW10      30.00F
Coeur d Alene  SUNNY     81  42  25 S10G16    30.01F
Deer Park      SUNNY     80  37  21 S12       30.00F
Sandpoint      SUNNY     81  43  26 SE7       29.97F
Bonners Ferry  FAIR      81  39  22 SW10G18   29.95F

...Southeast Washington and southern Idaho Panhandle...

CITY           SKY/WX    TMP DP  RH WIND       PRES   REMARKS
Walla Walla    SUNNY     83  41  22 SW9       30.00F
Pullman/Moscow SUNNY     78  41  26 W10       30.06F
Lewiston       SUNNY     83  39  21 E3        29.99F
Lowell           N/A     87  40  19 VRB5      29.97F
Grangeville    FAIR      77  36  22 N6        30.07S

...Columbia Basin...

CITY           SKY/WX    TMP DP  RH WIND       PRES   REMARKS
Ephrata        SUNNY     84  39  20 S7        29.95F
Moses Lake     SUNNY     85  43  22 S8        29.96F
Pasco          SUNNY     87  44  22 S10G18    29.96F
Richland       CLEAR     89  42  19 S9        29.94F
Hermiston      SUNNY     86  43  22 W9        29.97F
Pendleton      SUNNY     84  37  18 VRB5      30.00F

...East Slopes Cascades...

CITY           SKY/WX    TMP DP  RH WIND       PRES   REMARKS
The Dalles     SUNNY     84  51  31 NW20G31   29.96F
Yakima         SUNNY     87  48  25 SE8       29.96F
Ellensburg     SUNNY     87  49  26 W18       29.97F
Stampede Pass  MOSUNNY   68  45  43 VRB6      30.16R
Wenatchee      SUNNY     87  46  24 W13       29.93F
Omak           SUNNY     85  39  19 VRB7      29.91F
Sunnyside        N/A     80  49  34 CALM      29.96F

...Southern British Columbia...

CITY           SKY/WX    TMP DP  RH WIND       PRES   REMARKS
Penticton      PTSUNNY   82  50  32 S7        29.88F
Castlegar      MOSUNNY   86  43  22 S13       29.90F
Cranbrook      MOSUNNY   79  41  25 SE12      29.93F
Osoyoos          N/A     82  46  28 W2          N/A
Creston          N/A     79  48  34 NE3         N/A

...Western Montana...

CITY           SKY/WX    TMP DP  RH WIND       PRES   REMARKS
Kalispell      MOCLDY    78  38  23 S7        29.97F
Libby            N/A     81  36  19 NW6       29.95F
Missoula       SUNNY     80  31  16 VRB7      30.00F

...Neighboring Cities...

CITY           SKY/WX    TMP DP  RH WIND       PRES   REMARKS
Seattle        PTSUNNY   70  51  51 W6        30.12S
Portland       MOSUNNY   74  51  44 NW9       30.11S
Boise          SUNNY     83  39  21 NW10      30.01F
Great Falls    SUNNY     80  28  15 VRB3      29.95F
Calgary        PTSUNNY   75  36  23 S7        29.89F SMOKE



USA.gov is the U.S. government's official web portal to all federal, state and local government web resources and services.